Voltar ao catálogo

COSMOS 1275 DEB

AtivoPO
NORAD 14409·DEBRIS·🇷🇺 Russia

Lançado Jun 4, 1981 de Plesetsk Cosmodrome

Loading…

Próximas Passagens (próximas 24 horas)

TLE

AtualizadoSource: Space-Track

Época: Sep 14, 2026, 12:18 UTC

1 14409U 81053JE  26257.51276831  .00000723  00000-0  74774-3 0  9994
2 14409  83.0242 270.5535 0117943 257.6314 257.6076 13.71694482309537

Acompanhe COSMOS 1275 DEB em tempo real com AllMySat

Download on the App Store